Tracking 18852 objects as of 23-Nov-2017
HD Live streaming from Space Station
objects crossing your sky now

FENGYUN 1C DEB

Track FENGYUN 1C DEB now!
10-day predictions


NORAD ID: 32334
Int'l Code: 1999-025CYB
Perigee: 855.6 km
Apogee: 957.1 km
Inclination: 99.2 °
Period: 103.0 minutes
Semi major axis: 7277 km
RCS: 0.0091 m2 (small)
Launch date: May 10, 1999
Source: People's Republic of China (PRC)
Launch site: Taiyaun Space Center, China (TSC)

Note: This is SATELLITE DEBRIS
aabbcc
Your satellite tracking list
Your tracking list is empty




NASA's NSSDC Master Catalog

Two Line Element Set (TLE):
1 32334U 99025CYB 17326.37464369  .00000242  00000-0  19667-3 0  9991
2 32334  99.2409 288.0048 0069753  46.9400 106.3065 13.98438285527852
Source of the keplerian elements: AFSPC